If you wish to contribute or participate in the discussions about articles you are invited to join SKYbrary as a registered user

 Actions

General Freire Airport

From SKYbrary Wiki

SCIC
Airport
ICAO: SCIC
Summary
Name General Freire Airport
Region South America and Caribbean
Territory Chile CL.gif
Location Curico, Maule
Serving Curico
Elevation 220.066 m
722 ft
722 ft220.066 m
Type small airport
Coordinates 34° 58' 0.12" S, 71° 12' 59.04" W
Runways
Designator Length Width Surface ROPS
1/19 800 m2,624.672 ft
18 m59.055 ft
ASP /


METAR
Observation SCIC 211200Z 04005KT 010V070 8000 FEW005 15/12 Q1013
Station Curico
Date/Time 21 February 2020 12:00:00
Wind direction 40°
Wind speed 05 kts
Lowest cloud amount few clouds
Temperature 15°C
Dew point 12°C
Humidity 82%
QNH 1013 hPa
Weather condition n/a

Airport located on northeastern side of Curico, Maule, Chile.

Climatology

Temperate mediterranean climate (Köppen climate classification Csb)

Maps

Terrain

Loading map...

Airport Layout

Loading map...


Accidents & Serious Incidents at or in vicinity of SCIC

None on SKYbrary